Total_Precipitation_Accumulation
0.22 0.32 0.58 0.57 0.58 0.55 0.53 0.47 0.46 0.48 0.55 0.66 0.65 0.61 0.62 0.63 0.60 0.53 0.57 0.59 0.63 0.68 0.70 0.76 0.82 0.82 0.83 0.80 0.67 0.47 0.37 0.33 0.28 0.24 0.26 0.29 0.34 0.34 0.30 0.33 0.36 0.37 0.48
0.23 0.36 0.57 0.58 0.62 0.64 0.61 0.52 0.48 0.50 0.56 0.65 0.70 0.69 0.73 0.75 0.72 0.68 0.66 0.66 0.68 0.72 0.74 0.73 0.67 0.59 0.54 0.53 0.44 0.39 0.33 0.22 0.16 0.11 0.09 0.13 0.25 0.34 0.30 0.29 0.34 0.44 0.52
0.23 0.36 0.55 0.63 0.70 0.68 0.63 0.54 0.48 0.49 0.57 0.65 0.73 0.76 0.80 0.80 0.79 0.85 0.85 0.77 0.81 0.78 0.78 0.69 0.56 0.46 0.42 0.39 0.35 0.33 0.30 0.17 0.12 0.09 0.08 0.13 0.21 0.34 0.32 0.34 0.47 0.55 0.59
0.27 0.38 0.48 0.67 0.75 0.72 0.66 0.63 0.54 0.53 0.59 0.66 0.72 0.79 0.83 0.85 0.93 0.99 0.92 0.86 0.85 0.74 0.69 0.62 0.51 0.42 0.35 0.30 0.29 0.28 0.28 0.20 0.12 0.09 0.14 0.20 0.25 0.45 0.49 0.54 0.66 0.62 0.59
0.35 0.45 0.63 0.80 0.82 0.79 0.75 0.72 0.67 0.62 0.66 0.71 0.80 0.89 0.92 0.95 1.01 0.96 0.88 0.80 0.72 0.62 0.59 0.53 0.41 0.35 0.31 0.26 0.24 0.24 0.24 0.18 0.10 0.07 0.12 0.18 0.32 0.61 0.67 0.72 0.77 0.67 0.59
0.46 0.56 0.75 0.89 0.97 0.96 0.89 0.80 0.77 0.76 0.76 0.76 0.86 0.95 1.01 1.08 1.01 0.94 0.84 0.70 0.57 0.51 0.51 0.46 0.37 0.33 0.29 0.25 0.24 0.25 0.23 0.16 0.09 0.08 0.14 0.19 0.32 0.65 0.72 0.78 0.77 0.73 0.68
0.61 0.72 0.83 0.97 1.07 1.07 1.04 0.95 0.87 0.88 0.87 0.86 0.93 0.98 1.11 1.17 1.08 1.02 0.84 0.66 0.54 0.49 0.52 0.48 0.41 0.35 0.31 0.27 0.25 0.24 0.21 0.14 0.08 0.09 0.16 0.23 0.38 0.65 0.79 0.82 0.80 0.71 0.71
0.84 0.98 1.03 1.19 1.19 1.18 1.11 1.06 0.95 0.97 0.96 0.98 1.04 1.05 1.10 1.17 1.11 1.08 0.90 0.74 0.61 0.54 0.53 0.50 0.46 0.40 0.35 0.30 0.27 0.24 0.18 0.12 0.07 0.07 0.15 0.25 0.40 0.66 0.83 0.76 0.74 0.64 0.62
1.24 1.38 1.32 1.32 1.20 1.23 1.20 1.10 1.04 0.99 1.03 1.07 1.09 1.04 1.04 1.06 1.05 1.01 0.90 0.78 0.72 0.66 0.64 0.60 0.53 0.46 0.39 0.34 0.29 0.23 0.15 0.10 0.08 0.08 0.11 0.22 0.38 0.62 0.81 0.86 0.77 0.66 0.67
1.62 1.79 1.73 1.55 1.39 1.29 1.27 1.18 1.12 1.06 1.04 1.03 0.95 0.81 0.77 0.83 0.91 0.86 0.71 0.67 0.67 0.66 0.67 0.65 0.60 0.52 0.42 0.36 0.29 0.22 0.14 0.11 0.09 0.09 0.14 0.22 0.41 0.65 0.84 0.89 0.84 0.72 0.70
1.96 2.06 2.12 1.95 1.68 1.49 1.36 1.20 1.24 1.21 1.10 1.03 0.88 0.71 0.69 0.75 0.77 0.69 0.56 0.54 0.60 0.61 0.63 0.65 0.61 0.54 0.44 0.34 0.30 0.24 0.19 0.15 0.12 0.13 0.17 0.29 0.55 0.74 0.84 0.84 0.79 0.72 0.72
2.02 2.12 2.29 2.17 1.98 1.79 1.54 1.31 1.36 1.36 1.17 1.02 0.86 0.80 0.78 0.78 0.80 0.69 0.58 0.53 0.59 0.56 0.56 0.65 0.65 0.59 0.49 0.36 0.31 0.27 0.25 0.19 0.17 0.16 0.20 0.37 0.64 0.78 0.83 0.75 0.73 0.71 0.69
2.15 2.32 2.43 2.45 2.19 2.06 1.90 1.54 1.36 1.37 1.32 1.21 1.04 0.95 0.91 0.90 0.90 0.85 0.73 0.66 0.65 0.54 0.50 0.51 0.57 0.51 0.45 0.41 0.37 0.31 0.29 0.28 0.25 0.23 0.25 0.36 0.55 0.73 0.81 0.73 0.70 0.73 0.70
2.31 2.37 2.48 2.65 2.49 2.20 2.03 1.84 1.62 1.48 1.43 1.34 1.19 1.14 1.13 1.04 0.92 0.87 0.78 0.69 0.71 0.64 0.58 0.56 0.49 0.45 0.46 0.46 0.42 0.38 0.36 0.36 0.29 0.28 0.29 0.34 0.45 0.65 0.79 0.80 0.76 0.77 0.78
2.32 2.45 2.52 2.60 2.66 2.46 2.25 2.04 1.83 1.66 1.54 1.56 1.51 1.38 1.30 1.23 1.07 0.97 0.89 0.87 0.86 0.80 0.74 0.67 0.61 0.59 0.55 0.56 0.51 0.43 0.41 0.42 0.38 0.34 0.33 0.32 0.35 0.51 0.71 0.85 0.92 0.92 0.95
2.21 2.41 2.54 2.62 2.75 2.73 2.45 2.27 2.07 1.81 1.61 1.64 1.66 1.54 1.50 1.45 1.39 1.28 1.20 1.11 1.06 0.99 0.93 0.84 0.78 0.77 0.73 0.67 0.63 0.54 0.47 0.48 0.50 0.47 0.44 0.39 0.36 0.40 0.58 0.78 0.96 1.07 1.10
2.18 2.40 2.44 2.56 2.75 2.81 2.72 2.55 2.31 2.12 1.83 1.71 1.63 1.57 1.58 1.52 1.48 1.47 1.44 1.43 1.38 1.30 1.18 1.10 1.05 1.00 0.91 0.81 0.73 0.68 0.63 0.58 0.57 0.60 0.59 0.52 0.47 0.42 0.52 0.73 0.90 1.07 1.15
2.23 2.42 2.48 2.52 2.68 2.74 2.79 2.84 2.71 2.53 2.27 1.99 1.82 1.75 1.71 1.66 1.59 1.53 1.45 1.38 1.42 1.53 1.52 1.40 1.28 1.20 1.06 0.95 0.84 0.75 0.67 0.64 0.61 0.63 0.66 0.68 0.63 0.52 0.48 0.59 0.73 0.92 1.05
2.16 2.36 2.53 2.55 2.74 2.83 2.84 2.90 2.89 2.74 2.63 2.44 2.10 1.84 1.78 1.83 1.81 1.72 1.58 1.49 1.51 1.45 1.48 1.52 1.44 1.29 1.20 1.13 1.04 0.92 0.79 0.69 0.65 0.64 0.62 0.64 0.67 0.62 0.55 0.55 0.61 0.71 0.87
2.06 2.25 2.45 2.55 2.70 3.01 3.10 3.06 3.04 2.79 2.55 2.54 2.36 2.10 1.93 1.93 2.00 1.90 1.72 1.67 1.73 1.63 1.51 1.42 1.45 1.38 1.24 1.24 1.21 1.10 0.99 0.90 0.83 0.74 0.68 0.66 0.66 0.64 0.62 0.55 0.55 0.58 0.69
2.01 2.17 2.33 2.45 2.55 2.82 3.02 3.02 2.91 2.75 2.50 2.36 2.31 2.22 2.13 2.08 2.14 2.12 1.93 1.79 1.78 1.70 1.58 1.52 1.49 1.51 1.45 1.38 1.44 1.35 1.19 1.09 1.03 0.93 0.83 0.78 0.75 0.74 0.72 0.68 0.63 0.60 0.59
1.78 2.00 2.22 2.35 2.45 2.48 2.57 2.82 2.97 3.02 2.84 2.56 2.36 2.24 2.15 2.09 2.11 2.13 2.11 2.01 1.90 1.83 1.77 1.74 1.73 1.70 1.66 1.65 1.67 1.69 1.54 1.37 1.12 0.96 0.93 0.87 0.80 0.81 0.79 0.75 0.68 0.63 0.59
1.55 1.78 2.07 2.23 2.37 2.40 2.45 2.73 2.96 3.13 2.96 2.63 2.28 2.09 2.08 2.09 2.12 2.05 2.07 2.13 2.07 1.97 1.85 1.79 1.77 1.76 1.75 1.74 1.74 1.85 1.68 1.38 1.10 0.96 0.87 0.83 0.81 0.81 0.81 0.83 0.83 0.78 0.72
1.37 1.54 1.72 1.93 2.10 2.30 2.40 2.49 2.55 2.67 2.67 2.41 2.28 2.16 2.15 2.14 2.13 2.11 2.08 2.10 2.10 2.03 1.89 1.85 1.80 1.76 1.77 1.75 1.74 1.67 1.55 1.30 1.19 1.09 0.94 0.84 0.82 0.83 0.86 0.87 0.89 0.92 0.89
1.20 1.43 1.58 1.66 1.86 2.09 2.26 2.32 2.46 2.46 2.50 2.55 2.50 2.39 2.26 2.20 2.13 2.07 2.06 2.08 2.01 1.95 1.92 1.95 1.91 1.89 1.85 1.78 1.69 1.63 1.63 1.45 1.25 1.21 1.07 0.92 0.90 0.87 0.92 0.98 0.97 0.97 0.96
1.12 1.28 1.49 1.49 1.59 1.76 2.03 2.26 2.31 2.27 2.32 2.37 2.36 2.29 2.25 2.21 2.17 2.09 1.99 1.95 1.92 1.93 1.93 1.96 2.00 1.96 1.96 1.93 1.83 1.71 1.70 1.66 1.46 1.39 1.31 1.09 1.02 0.95 0.92 0.96 1.00 1.00 0.98